Regional Weather Roundup
Issued by NWS

Home | Current Version | Previous Version | Graphics & Text | Print | Product List | Glossary On
Versions: 1 2 3 4 5 6 7 8 9 10 11 12 13 14 15 16 17 18 19 20 21 22 23 24 25 26 27 28 29 30 31 32 33 34 35 36 37 38 39 40 41 42 43 44 45 46 47 48 49 50
000
ASUS45 KTFX 272010
RWRMT
MONTANA REGIONAL WEATHER ROUNDUP
NATIONAL WEATHER SERVICE GREAT FALLS MT
200 PM MDT SAT MAY 27 2017

NOTE: "FAIR" INDICATES FEW OR NO CLOUDS BELOW 12000 FEET WITH NO
SIGNIFICANT WEATHER AND/OR OBSTRUCTIONS TO VISIBILITY.

MTZ001>007-043-272100-
WEST OF THE DIVIDE

CITY           SKY/WX    TMP DP  RH WIND       PRES   REMARKS
KALISPELL      SUNNY     71  43  36 VRB5      30.13S
MISSOULA       SUNNY     74  41  30 VRB6      30.16F
BUTTE          CLOUDY    61  31  32 W8        30.23R
MULLAN PASS    SUNNY     58  31  35 VRB6      30.27S
ANACONDA         N/A     64  34  32 N5        30.20S
DEER LODGE       N/A     64  34  32 NW12G18   30.21S
EUREKA           N/A     73  37  27 W5        30.10F
HAMILTON         N/A     70  32  24 NW3       30.18S
PLAINS           N/A     75  47  37 S7        30.13S
RONAN            N/A     71  39  31 S5        30.19S
THOMPSON FALLS   N/A     75  46  35 CALM      30.16S
$$

MTZ008-052>055-272100-
SOUTHWEST MONTANA

CITY           SKY/WX    TMP DP  RH WIND       PRES   REMARKS
BOZEMAN        SUNNY     66  38  35 CALM      30.17F
DILLON         CLOUDY    63  34  33 VRB3      30.20F
ENNIS          MOSUNNY   63  32  31 VRB5      30.26S
THREE FORKS      N/A     69  35  28 N3        30.14S
TWIN BRIDGES     N/A     64  35  34 SW6       30.16S
$$

MTZ009-010-012-014-046-048-049-054-272100-
EAST SLOPES AND CENTRAL MONTANA

CITY           SKY/WX    TMP DP  RH WIND       PRES   REMARKS
CUT BANK       SUNNY     73  35  25 N15G24    30.08S
GREAT FALLS    PTSUNNY   72  32  23 NW8       30.09S
MALMSTROM AFB  CLOUDY    72  35  25 W13G21    30.09S
HELENA         MOSUNNY   71  36  27 VRB6      30.13S
CHOTEAU          N/A     72  34  25 W6G14     30.12S
CONRAD           N/A     73  45  36 W10       30.10S
$$

MTZ011-013-016-021-045-047-050-051-272100-
NORTH CENTRAL MONTANA

CITY           SKY/WX    TMP DP  RH WIND       PRES   REMARKS
HAVRE          SUNNY     79  30  16 N17       29.99R
LEWISTOWN      PTSUNNY   69  36  29 NW14G26   30.08S
N BAR RANCH      N/A     66  34  30 NW20G28   30.11R
CHINOOK          N/A     79  30  17 W14G21    29.96S
FORT BENTON      N/A     77  36  22 CALM      30.03F
$$

MTZ017>020-022>027-061-062-272100-
NORTHEAST MONTANA

CITY           SKY/WX    TMP DP  RH WIND       PRES   REMARKS
GLASGOW        CLOUDY    75  34  22 NW15      29.91S
JORDAN           N/A     74  37  26 NW21G33   29.94S
SIDNEY         MOSUNNY   74  39  28 NW20G26   29.84F
WOLF POINT     LGT RAIN  72  36  26 NW20G41   29.89R
MALTA          MOSUNNY   77  32  19 N14G24    29.93S
PLENTYWOOD       N/A     70  36  28 NW36G45   29.81F
POPLAR           N/A     70  39  32 NW26G37   29.89R
SCOBEY           N/A     70  36  28 W24       29.89F
$$

MTZ028>42-056>058-272100-
SOUTHCENTRAL AND SOUTHEAST MONTANA

CITY           SKY/WX    TMP DP  RH WIND       PRES   REMARKS
BAKER          CLOUDY    67  36  31 NW15G30   29.95S
BILLINGS       CLOUDY    70  33  25 NW20G28   30.07S
LIVINGSTON     MOSUNNY   68  40  35 SW13      30.15S
MILES CITY     CLOUDY    71  34  25 NW20G31   29.96S
BIG TIMBER     SUNNY     64  34  32 NW6G13    30.16S
EKALAKA          N/A     68  36  30 W22       29.97F
FORSYTH          N/A     72  36  26 NW12G24   29.98S
LAUREL           N/A     70  36  28 W12       30.07F
ROUNDUP          N/A     71  34  25 W14       29.96S
$$

REGIONAL REPORTS...DAKOTAS

CITY           SKY/WX    TMP DP  RH WIND       PRES   REMARKS
WILLISTON      CLOUDY    71  33  24 W18G32    29.82S
MINOT          CLOUDY    73  36  25 SW15G28   29.75F
DICKINSON      PTSUNNY   73  35  25 W23G33    29.84F
BEACH          PTSUNNY   68  37  32 NW17G38   29.92F
CROSBY         PTSUNNY   52  50  93 N18G25    29.86R
TIOGA          PTSUNNY   68  30  24 NW25G38   29.81R
WATFORD CITY     N/A     73  37  27 W18G26    29.81F
BISMARCK       MOSUNNY   78  38  23 NW14G30   29.82F
GRAND FORKS    PTSUNNY   77  42  28 W13G23    29.73F
FARGO          MOSUNNY   78  37  22 SW20G25   29.77F
BUFFALO SD       N/A     72  37  28 W28G39    29.89F
RAPID CITY     MOSUNNY   71  35  26 NW10G23   30.00F
$$

REGIONAL REPORTS...WYOMING/IDAHO/WASHINGTON

CITY           SKY/WX    TMP DP  RH WIND       PRES   REMARKS
GILLETTE       CLOUDY    62  37  39 NW15      30.08S
SHERIDAN       PTSUNNY   66  34  30 NW17G24   30.10S
BUFFALO WY     PTSUNNY   63  30  28 N17G33    30.13S
CODY           MOSUNNY   63  27  25 CALM      30.18S
YELLOWSTONE LA   N/A     46  35  65 VRB7      30.31S
IDAHO FALLS    MOSUNNY   61  43  51 VRB5      30.25F
SALMON         PTSUNNY   68  36  30 CALM      30.17S
BOISE          SUNNY     73  39  29 VRB3      30.17F
SPOKANE        MOSUNNY   75  42  30 VRB6      30.15S
$$

REGIONAL REPORTS...ALBERTA

CITY           SKY/WX    TMP DP  RH WIND       PRES   REMARKS
EDMONTON       MOSUNNY   75  45  33 W10       29.95R
CALGARY        MOSUNNY   73  36  25 NW13G22   30.04R
MEDICINE HAT   PTSUNNY   77  39  25 W18G25    29.95S
WATERTON GATE    N/A     70  36  28 SW15G23     N/A
CARDSTON         N/A     70  37  30 W8          N/A
MILK RIVER       N/A     73  43  33 NW12G17     N/A
$$

REGIONAL REPORTS...SASKATCHEWAN

CITY           SKY/WX    TMP DP  RH WIND       PRES   REMARKS
SWIFT CURRENT  PTSUNNY   72  37  28 NW28G37   29.89F
REGINA         MOSUNNY   70  36  28 N25G39    29.78S
SASKATOON      SUNNY     70  34  26 N21G31    29.83S
VAL MARIE        N/A     73  36  25 NW23G33     N/A
ROCKGLEN         N/A     68  36  30 NW20G25     N/A
$$



USA.gov is the U.S. government's official web portal to all federal, state and local government web resources and services.